M I D A S
Marine Information and Data Acquisition System
Tripno 248 of the Zeeleeuw from 2002-04-23 06:45:35 to 2002-04-23 11:52:25
Back to CruiseResearch ActivitiesStationsMapUnderway DataData graphs

EquipmentUnitsComment
TimeDGPSUTC
LatitudeDGPSDM.mWGS84
LongitudeDGPSDM.mWGS84
TemperatureSBE03/SBE38deg celciusITS90
ConductivitySBE21S/mITS90
SalinitySBE21 Practical Salinity Units
ChlorophylAChelsea fluorimeterg/lCalibrated in Aceton
Missing or incorrect values are displayed as -999
Sea surface data collected by the RV Zeeleeuw from 2002-04-23 06:45:35 to 2002-04-23 11:52:25
                                                                                    Next 1000 lines
Time Latitude Longitude Temperature Conductivity Salinity ChlorophylA
2002-04-23 06:45:41 51°13.688 2°55.906 33.134564 0.08185 0.401114  
2002-04-23 06:45:47 51°13.688 2°55.906 32.662073 0.08185 0.401108  
2002-04-23 06:45:52 51°13.689 2°55.906 32.662073 0.08185 0.401108  
2002-04-23 06:45:57 51°13.689 2°55.906 33.218791 0.08185 0.401103  
2002-04-23 06:46:02 51°13.689 2°55.906 33.412964 0.08185 0.401103  
2002-04-23 06:46:07 51°13.689 2°55.906 32.997941 0.08185 0.401103  
2002-04-23 06:46:12 51°13.689 2°55.906 33.401859 0.08185 0.401092  
2002-04-23 06:46:17 51°13.689 2°55.906 32.17128 0.08185 0.401097  
2002-04-23 06:46:22 51°13.688 2°55.906 32.17128 0.08185 0.401097  
2002-04-23 06:46:27 51°13.688 2°55.906 33.193783 0.08185 0.401097  
2002-04-23 06:46:32 51°13.688 2°55.906 32.972251 0.08185 0.401092  
2002-04-23 06:46:37 51°13.688 2°55.906 33.0281 0.08185 0.401086  
2002-04-23 06:46:41 51°13.688 2°55.906 33.3354 0.08185 0.401086  
2002-04-23 06:46:47 51°13.688 2°55.906 32.51181 0.08185 0.401081  
2002-04-23 06:46:52 51°13.688 2°55.906 32.51181 0.08185 0.401081  
2002-04-23 06:46:57 51°13.688 2°55.906 32.674579 0.08185 0.401075  
2002-04-23 06:47:01 51°13.688 2°55.906 32.133819 0.08185 0.401075  
2002-04-23 06:47:07 51°13.688 2°55.906 32.91704 0.08185 0.401075  
2002-04-23 06:47:12 51°13.688 2°55.906 32.91721 0.08185 0.401075  
2002-04-23 06:47:17 51°13.687 2°55.906 32.470756 0.08185 0.401069  
2002-04-23 06:47:22 51°13.687 2°55.905 32.470756 0.08185 0.401069  
2002-04-23 06:47:27 51°13.687 2°55.905 32.33097 0.08185 0.401069  
2002-04-23 06:47:31 51°13.687 2°55.905 31.853073 0.08185 0.401069  
2002-04-23 06:47:37 51°13.687 2°55.905 32.499073 0.08185 0.401069  
2002-04-23 06:47:42 51°13.687 2°55.905 32.66664 0.08185 0.401058  
2002-04-23 06:47:47 51°13.687 2°55.905 28.407769 0.08185 0.401064  
2002-04-23 06:47:52 51°13.687 2°55.905 28.407769 0.08185 0.401064  
2002-04-23 06:47:57 51°13.687 2°55.905 32.610699 0.08185 0.401058  
2002-04-23 06:48:02 51°13.686 2°55.905 32.898356 0.08185 0.401058  
2002-04-23 06:48:07 51°13.686 2°55.905 33.028677 0.08185 0.401058  
2002-04-23 06:48:12 51°13.686 2°55.905 32.72271 0.08185 0.401053  
2002-04-23 06:48:17 51°13.686 2°55.905 32.778944 0.08185 0.401047  
2002-04-23 06:48:22 51°13.686 2°55.905 32.778944 0.08185 0.401047  
2002-04-23 06:48:27 51°13.686 2°55.905 32.536561 0.08185 0.401047  
2002-04-23 06:48:32 51°13.686 2°55.905 33.122132 0.08185 0.401047  
2002-04-23 06:48:37 51°13.686 2°55.904 32.248613 0.08185 0.401042  
2002-04-23 06:48:41 51°13.686 2°55.904 33.114747 0.08185 0.401042  
2002-04-23 06:48:47 51°13.686 2°55.903 33.448056 0.08185 0.401042  
2002-04-23 06:48:52 51°13.686 2°55.901 33.448056 0.08185 0.401042  
2002-04-23 06:48:57 51°13.687 2°55.898 34.056449 0.08185 0.401042  
2002-04-23 06:49:01 51°13.687 2°55.896 33.208877 0.08185 0.401036  
2002-04-23 06:49:07 51°13.688 2°55.891 31.701083 0.08185 0.401042  
2002-04-23 06:49:13 51°13.689 2°55.886 33.020061 0.08185 0.401036  
2002-04-23 06:49:18 51°13.689 2°55.88 32.208242 0.08185 0.401031  
2002-04-23 06:49:23 51°13.69 2°55.874 32.208242 0.08185 0.401031  
2002-04-23 06:49:28 51°13.69 2°55.868 32.985725 0.08185 0.401031  
2002-04-23 06:49:33 51°13.691 2°55.862 31.949612 0.08185 0.401025  
2002-04-23 06:49:37 51°13.691 2°55.857 31.845013 0.08185 0.401019  
2002-04-23 06:49:43 51°13.691 2°55.848 31.16352 0.08185 0.401014  
2002-04-23 06:49:47 51°13.691 2°55.843 31.440806 0.08185 0.401019  
2002-04-23 06:49:53 51°13.691 2°55.834 31.440806 0.08185 0.401019  
2002-04-23 06:49:58 51°13.691 2°55.827 30.594322 0.08185 0.401014  
2002-04-23 06:50:03 51°13.691 2°55.82 31.359673 0.08185 0.401014  
2002-04-23 06:50:08 51°13.69 2°55.813 31.417396 0.08185 0.401008  
2002-04-23 06:50:12 51°13.69 2°55.807 31.850455 0.08185 0.401008  
2002-04-23 06:50:18 51°13.69 2°55.799 30.894779 0.08185 0.401003  
2002-04-23 06:50:23 51°13.689 2°55.792 30.894779 0.08185 0.401003  
2002-04-23 06:50:28 51°13.689 2°55.785 30.963133 0.08185 0.400997  
2002-04-23 06:50:32 51°13.688 2°55.78 31.454377 0.08185 0.401003  
2002-04-23 06:50:37 51°13.688 2°55.774 31.055928 0.08185 0.401003  
2002-04-23 06:50:42 51°13.687 2°55.768 30.735316 0.08185 0.400992  
2002-04-23 06:50:47 51°13.686 2°55.761 31.080005 0.08185 0.400997  
2002-04-23 06:50:52 51°13.686 2°55.755 31.080005 0.08185 0.400997  
2002-04-23 06:50:57 51°13.685 2°55.75 31.508604 0.08185 0.400997  
2002-04-23 06:51:02 51°13.684 2°55.744 31.483693 0.08185 0.400997  
2002-04-23 06:51:07 51°13.684 2°55.739 30.742585 0.08185 0.400986  
2002-04-23 06:51:12 51°13.683 2°55.734 32.523862 0.08185 0.400981  
2002-04-23 06:51:17 51°13.683 2°55.731 31.894697 0.08185 0.400981  
2002-04-23 06:51:21 51°13.683 2°55.73 31.894697 0.08185 0.400981  
2002-04-23 06:51:27 51°13.683 2°55.73 29.962469 0.08185 0.40097  
2002-04-23 06:51:32 51°13.685 2°55.733 30.756595 0.08185 0.400964  
2002-04-23 06:51:37 51°13.687 2°55.737 32.092975 0.08185 0.400964  
2002-04-23 06:51:42 51°13.69 2°55.742 32.22137 0.08185 0.400964  
2002-04-23 06:51:47 51°13.694 2°55.745 33.446201 0.08185 0.400986  
2002-04-23 06:51:52 51°13.697 2°55.748 33.446201 0.08185 0.400986  
2002-04-23 06:51:57 51°13.7 2°55.75 33.568465 0.08185 0.400992  
2002-04-23 06:52:02 51°13.703 2°55.751 33.076656 0.08185 0.400992  
2002-04-23 06:52:07 51°13.704 2°55.752 30.630129 0.08185 0.400975  
2002-04-23 06:52:12 51°13.705 2°55.753 31.684173 0.08185 0.400964  
2002-04-23 06:52:17 51°13.705 2°55.753 32.615303 0.08185 0.400953  
2002-04-23 06:52:22 51°13.704 2°55.753 32.615303 0.08185 0.400953  
2002-04-23 06:52:27 51°13.703 2°55.753 30.562071 0.08185 0.400947  
2002-04-23 06:52:32 51°13.701 2°55.752 32.185683 0.08185 0.400947  
2002-04-23 06:52:38 51°13.698 2°55.752 29.690647 0.08185 0.400953  
2002-04-23 06:52:43 51°13.695 2°55.751 31.071238 0.08185 0.400964  
2002-04-23 06:52:48 51°13.692 2°55.75 31.89036 0.08185 0.400964  
2002-04-23 06:52:53 51°13.69 2°55.75 31.89036 0.08185 0.400964  
2002-04-23 06:52:58 51°13.687 2°55.749 31.390896 0.08185 0.400947  
2002-04-23 06:53:03 51°13.684 2°55.748 31.240972 0.08185 0.400947  
2002-04-23 06:53:07 51°13.682 2°55.748 30.785586 0.08185 0.400947  
2002-04-23 06:53:12 51°13.68 2°55.747 30.61865 0.08185 0.400936  
2002-04-23 06:53:17 51°13.678 2°55.746 30.862481 0.08185 0.400925  
2002-04-23 06:53:22 51°13.677 2°55.746 30.862481 0.08185 0.400925  
2002-04-23 06:53:27 51°13.678 2°55.745 33.424033 0.08185 0.400925  
2002-04-23 06:53:32 51°13.68 2°55.744 33.336549 0.08185 0.400925  
2002-04-23 06:53:37 51°13.684 2°55.742 34.020223 0.08185 0.400931  
2002-04-23 06:53:43 51°13.689 2°55.739 33.218385 0.08185 0.400931  
2002-04-23 06:53:47 51°13.692 2°55.737 34.209204 0.08185 0.400931  
2002-04-23 06:53:52 51°13.698 2°55.733 34.209204 0.08185 0.400931  
2002-04-23 06:53:57 51°13.703 2°55.729 33.27585 0.08185 0.400931  
2002-04-23 06:54:02 51°13.71 2°55.725 33.001606 0.08185 0.400925  
2002-04-23 06:54:07 51°13.716 2°55.72 33.114577 0.08185 0.40092  
2002-04-23 06:54:12 51°13.724 2°55.715 33.254546 0.08185 0.400914  
2002-04-23 06:54:17 51°13.732 2°55.709 33.835316 0.08185 0.40092  
2002-04-23 06:54:22 51°13.74 2°55.703 33.835316 0.08185 0.40092  
2002-04-23 06:54:27 51°13.749 2°55.697 33.534134 0.08185 0.40092  
2002-04-23 06:54:31 51°13.756 2°55.692 32.759648 0.08185 0.400931  
2002-04-23 06:54:37 51°13.767 2°55.684 33.094348 0.08185 0.400942  
2002-04-23 06:54:41 51°13.775 2°55.679 33.179093 0.08185 0.400947  
2002-04-23 06:54:47 51°13.786 2°55.671 33.310801 0.08185 0.400942  
2002-04-23 06:54:51 51°13.794 2°55.665 33.310801 0.08185 0.400942  
2002-04-23 06:54:57 51°13.806 2°55.657 32.627135 0.08185 0.400936  
2002-04-23 06:55:02 51°13.816 2°55.65 34.205228 0.08185 0.400925  
2002-04-23 06:55:07 51°13.827 2°55.643 32.966786 0.08185 0.40092  
2002-04-23 06:55:12 51°13.837 2°55.635 32.876609 0.08185 0.400909  
2002-04-23 06:55:17 51°13.847 2°55.628 33.295018 0.08185 0.400903  
2002-04-23 06:55:22 51°13.858 2°55.62 33.295018 0.08185 0.400903  
2002-04-23 06:55:27 51°13.868 2°55.613 33.471532 0.08185 0.400897  
2002-04-23 06:55:32 51°13.878 2°55.605 32.968178 0.08185 0.400897  
2002-04-23 06:55:37 51°13.889 2°55.597 32.46734 0.08185 0.400897  
2002-04-23 06:55:42 51°13.899 2°55.589 32.38253 0.081949 0.401397  
2002-04-23 06:55:47 51°13.91 2°55.581 33.771309 0.08185 0.400897  
2002-04-23 06:55:52 51°13.921 2°55.573 33.771309 0.08185 0.400897  
2002-04-23 06:55:57 51°13.932 2°55.565 33.303197 0.08185 0.400892  
2002-04-23 06:56:02 51°13.942 2°55.557 33.108275 0.08185 0.400892  
2002-04-23 06:56:07 51°13.953 2°55.549 33.080351 0.081949 0.401391  
2002-04-23 06:56:12 51°13.964 2°55.542 32.273415 0.08185 0.400892  
2002-04-23 06:56:17 51°13.974 2°55.534 32.926381 0.08185 0.400886  
2002-04-23 06:56:22 51°13.985 2°55.526 32.926381 0.08185 0.400886  
2002-04-23 06:56:27 51°13.995 2°55.519 32.75604 0.08185 0.400897  
2002-04-23 06:56:32 51°14.005 2°55.512 33.395884 0.08185 0.400897  
2002-04-23 06:56:37 51°14.014 2°55.505 33.506497 0.08185 0.400903  
2002-04-23 06:56:42 51°14.023 2°55.498 32.503478 0.08185 0.400897  
2002-04-23 06:56:47 51°14.031 2°55.491 32.948284 0.08185 0.400897  
2002-04-23 06:56:52 51°14.04 2°55.485 32.948284 0.08185 0.400897  
2002-04-23 06:56:57 51°14.048 2°55.478 33.667834 0.08185 0.400897  
2002-04-23 06:57:02 51°14.056 2°55.472 33.124165 0.08185 0.400892  
2002-04-23 06:57:07 51°14.064 2°55.466 33.311072 0.081949 0.401385  
2002-04-23 06:57:12 51°14.071 2°55.46 32.028887 0.08185 0.400886  
2002-04-23 06:57:17 51°14.079 2°55.454 32.980532 0.08185 0.400886  
2002-04-23 06:57:21 51°14.084 2°55.449 32.980532 0.08185 0.400886  
2002-04-23 06:57:27 51°14.093 2°55.443 33.671938 0.08185 0.400886  
2002-04-23 06:57:32 51°14.1 2°55.437 32.979209 0.08185 0.400886  
2002-04-23 06:57:37 51°14.107 2°55.431 33.026235 0.08185 0.400881  
2002-04-23 06:57:42 51°14.114 2°55.426 32.504946 0.081949 0.401374  
2002-04-23 06:57:47 51°14.121 2°55.42 21.982174 0.08185 0.400875  
2002-04-23 06:57:52 51°14.128 2°55.414 21.982174 0.08185 0.400875  
2002-04-23 06:57:57 51°14.135 2°55.408 21.754772 0.08185 0.40087  
2002-04-23 06:58:02 51°14.143 2°55.401 21.818415 0.08185 0.40087  
2002-04-23 06:58:07 51°14.151 2°55.395 21.395998 0.08185 0.40087  
2002-04-23 06:58:12 51°14.16 2°55.388 21.686488 0.081949 0.401369  
2002-04-23 06:58:17 51°14.168 2°55.38 22.136529 0.081949 0.401363  
2002-04-23 06:58:22 51°14.176 2°55.372 22.136529 0.081949 0.401363  
2002-04-23 06:58:27 51°14.185 2°55.363 21.522879 0.081949 0.401369  
2002-04-23 06:58:32 51°14.194 2°55.354 21.391237 0.08185 0.400859  
2002-04-23 06:58:37 51°14.203 2°55.344 21.258913 0.081949 0.401358  
2002-04-23 06:58:42 51°14.211 2°55.333 21.750903 0.081949 0.401363  
2002-04-23 06:58:47 51°14.22 2°55.322 21.527711 0.08185 0.400859  
2002-04-23 06:58:52 51°14.229 2°55.311 21.527711 0.08185 0.400859  
2002-04-23 06:58:57 51°14.238 2°55.299 21.857094 0.081949 0.401358  
2002-04-23 06:59:02 51°14.247 2°55.287 21.600182 0.081949 0.401358  
2002-04-23 06:59:07 51°14.255 2°55.274 21.858079 0.081949 0.401358  
2002-04-23 06:59:12 51°14.263 2°55.26 21.854571 0.081949 0.401358  
2002-04-23 06:59:17 51°14.271 2°55.246 21.816522 0.081949 0.401352  
2002-04-23 06:59:22 51°14.279 2°55.232 21.816522 0.081949 0.401352  
2002-04-23 06:59:27 51°14.287 2°55.217 21.851654 0.08185 0.400853  
2002-04-23 06:59:32 51°14.295 2°55.203 21.436136 0.081949 0.401341  
2002-04-23 06:59:37 51°14.303 2°55.188 21.409287 0.081949 0.401335  
2002-04-23 06:59:42 51°14.312 2°55.172 21.572682 0.08185 0.400842  
2002-04-23 06:59:47 51°14.32 2°55.156 21.98847 0.081949 0.401347  
2002-04-23 06:59:52 51°14.329 2°55.14 21.98847 0.081949 0.401347  
2002-04-23 06:59:57 51°14.337 2°55.124 21.795774 0.081949 0.401341  
2002-04-23 07:00:02 51°14.346 2°55.107 21.896973 0.081949 0.401335  
2002-04-23 07:00:07 51°14.356 2°55.091 21.446008 0.081949 0.401341  
2002-04-23 07:00:12 51°14.366 2°55.076 21.577471 0.081949 0.401335  
2002-04-23 07:00:17 51°14.376 2°55.06 21.387705 0.08185 0.400831  
2002-04-23 07:00:22 51°14.388 2°55.046 21.387705 0.08185 0.400831  
2002-04-23 07:00:27 51°14.4 2°55.032 21.5464 0.08185 0.400836  
2002-04-23 07:00:32 51°14.411 2°55.017 22.084564 0.081949 0.40133  
2002-04-23 07:00:37 51°14.42 2°54.999 21.8485 0.081949 0.401358  
2002-04-23 07:00:41 51°14.427 2°54.984 21.722988 0.081949 0.401363  
2002-04-23 07:00:47 51°14.435 2°54.959 21.563184 0.081949 0.401374  
2002-04-23 07:00:52 51°14.441 2°54.938 21.563184 0.081949 0.401374  
2002-04-23 07:00:57 51°14.445 2°54.915 21.76085 0.081949 0.401363  
2002-04-23 07:01:02 51°14.449 2°54.893 21.231798 0.081949 0.401347  
2002-04-23 07:01:07 51°14.451 2°54.869 21.847278 0.081949 0.401341  
2002-04-23 07:01:12 51°14.452 2°54.845 21.915881 0.081949 0.401341  
2002-04-23 07:01:17 51°14.454 2°54.821 21.902646 0.081949 0.401324  
2002-04-23 07:01:22 51°14.455 2°54.796 21.902646 0.081949 0.401324  
2002-04-23 07:01:27 51°14.456 2°54.772 22.09914 0.081949 0.40133  
2002-04-23 07:01:32 51°14.458 2°54.747 21.779202 0.081949 0.401319  
2002-04-23 07:01:37 51°14.461 2°54.722 22.237169 0.081949 0.401324  
2002-04-23 07:01:42 51°14.463 2°54.697 21.812538 0.081949 0.40133  
2002-04-23 07:01:47 51°14.465 2°54.673 21.828392 0.081949 0.401341  
2002-04-23 07:01:52 51°14.465 2°54.648 21.828392 0.081949 0.401341  
2002-04-23 07:01:57 51°14.463 2°54.623 21.905758 0.081949 0.401352  
2002-04-23 07:02:02 51°14.462 2°54.599 21.490675 0.081949 0.401363  
2002-04-23 07:02:07 51°14.458 2°54.575 21.628224 0.081949 0.401352  
2002-04-23 07:02:12 51°14.455 2°54.551 21.468365 0.081949 0.401335  
2002-04-23 07:02:17 51°14.451 2°54.527 21.725279 0.081949 0.401335  
2002-04-23 07:02:21 51°14.446 2°54.509 21.725279 0.081949 0.401335  
2002-04-23 07:02:27 51°14.438 2°54.483 22.105661 0.081949 0.401341  
2002-04-23 07:02:32 51°14.43 2°54.462 21.778492 0.081949 0.401347  
2002-04-23 07:02:37 51°14.422 2°54.44 21.751811 0.081949 0.401324  
2002-04-23 07:02:42 51°14.414 2°54.42 21.722988 0.081949 0.401319  
2002-04-23 07:02:47 51°14.405 2°54.399 21.304094 0.081949 0.401319  
2002-04-23 07:02:52 51°14.396 2°54.379 21.304094 0.081949 0.401319  
2002-04-23 07:02:57 51°14.388 2°54.358 21.659931 0.081949 0.401313  
2002-04-23 07:03:02 51°14.379 2°54.338 21.628145 0.081949 0.401324  
2002-04-23 07:03:07 51°14.37 2°54.317 21.69684 0.081949 0.401324  
2002-04-23 07:03:12 51°14.362 2°54.296 21.339639 0.081949 0.401324  
2002-04-23 07:03:17 51°14.354 2°54.274 21.403496 0.081949 0.401319  
2002-04-23 07:03:22 51°14.346 2°54.253 21.403496 0.081949 0.401319  
2002-04-23 07:03:27 51°14.337 2°54.232 21.657165 0.081949 0.401324  
2002-04-23 07:03:32 51°14.329 2°54.21 21.979144 0.081949 0.401324  
2002-04-23 07:03:37 51°14.321 2°54.189 21.849131 0.081949 0.40133  
2002-04-23 07:03:42 51°14.313 2°54.168 21.910839 0.081949 0.401324  
2002-04-23 07:03:47 51°14.304 2°54.147 21.819953 0.081949 0.401319  
2002-04-23 07:03:52 51°14.296 2°54.126 21.819953 0.081949 0.401319  
2002-04-23 07:03:57 51°14.287 2°54.105 21.857173 0.081949 0.401324  
2002-04-23 07:04:02 51°14.279 2°54.084 22.083621 0.081949 0.40133  
2002-04-23 07:04:07 51°14.271 2°54.063 22.142928 0.081949 0.401335  
2002-04-23 07:04:12 51°14.262 2°54.042 21.849959 0.081949 0.40133  
2002-04-23 07:04:17 51°14.254 2°54.021 21.976862 0.081949 0.40133  
2002-04-23 07:04:21 51°14.247 2°54.004 21.976862 0.081949 0.40133  
2002-04-23 07:04:27 51°14.238 2°53.978 22.17484 0.081949 0.401319  
2002-04-23 07:04:32 51°14.229 2°53.957 19.501849 0.081949 0.401319  
2002-04-23 07:04:37 51°14.221 2°53.935 19.162456 0.081949 0.401324  
2002-04-23 07:04:41 51°14.215 2°53.918 19.328927 0.081949 0.401313  
2002-04-23 07:04:47 51°14.206 2°53.892 19.461778 0.081949 0.401319  
2002-04-23 07:04:52 51°14.198 2°53.87 19.461778 0.081949 0.401319  
2002-04-23 07:04:57 51°14.19 2°53.848 19.081285 0.081949 0.401313  
2002-04-23 07:05:01 51°14.184 2°53.831 19.391527 0.081949 0.401313  
2002-04-23 07:05:07 51°14.175 2°53.804 19.223241 0.081949 0.401313  
2002-04-23 07:05:12 51°14.167 2°53.783 19.238582 0.081949 0.401313  
2002-04-23 07:05:17 51°14.159 2°53.761 19.174986 0.081949 0.401313  
2002-04-23 07:05:22 51°14.151 2°53.74 19.174986 0.081949 0.401313  
2002-04-23 07:05:27 51°14.143 2°53.718 19.34547 0.081949 0.401313  
2002-04-23 07:05:32 51°14.136 2°53.696 19.248972 0.081949 0.401313  
2002-04-23 07:05:37 51°14.128 2°53.674 19.122313 0.081949 0.401308  
2002-04-23 07:05:42 51°14.12 2°53.653 19.095019 0.081949 0.401313  
2002-04-23 07:05:47 51°14.112 2°53.631 19.232364 0.081949 0.401313  
2002-04-23 07:05:52 51°14.104 2°53.61 19.232364 0.081949 0.401313  
2002-04-23 07:05:57 51°14.096 2°53.588 19.199302 0.081949 0.401313  
2002-04-23 07:06:02 51°14.088 2°53.565 19.327415 0.081949 0.401308  
2002-04-23 07:06:07 51°14.08 2°53.543 19.184033 0.081949 0.401302  
2002-04-23 07:06:12 51°14.071 2°53.52 19.441836 0.081949 0.401302  
2002-04-23 07:06:17 51°14.063 2°53.497 19.184484 0.081949 0.401308  
2002-04-23 07:06:22 51°14.054 2°53.474 19.184484 0.081949 0.401308  
2002-04-23 07:06:27 51°14.046 2°53.45 19.383118 0.081949 0.401308  
2002-04-23 07:06:32 51°14.037 2°53.426 19.286917 0.081949 0.401302  
2002-04-23 07:06:37 51°14.028 2°53.402 19.258501 0.081949 0.401302  
2002-04-23 07:06:41 51°14.021 2°53.383 19.353312 0.081949 0.401308  
2002-04-23 07:06:47 51°14.011 2°53.354 19.123214 0.081949 0.401308  
2002-04-23 07:06:52 51°14.002 2°53.329 19.123214 0.081949 0.401308  
2002-04-23 07:06:57 51°13.993 2°53.305 19.10838 0.081949 0.401302  
2002-04-23 07:07:02 51°13.984 2°53.28 19.2412 0.081949 0.401302  
2002-04-23 07:07:07 51°13.975 2°53.256 19.272076 0.081949 0.401302  
2002-04-23 07:07:12 51°13.966 2°53.232 19.455498 0.081949 0.401241  
2002-04-23 07:07:17 51°13.957 2°53.208 19.073946 0.081949 0.401219  
2002-04-23 07:07:22 51°13.949 2°53.183 19.073946 0.081949 0.401219  
2002-04-23 07:07:27 51°13.94 2°53.159 19.422704 0.081949 0.401197  
2002-04-23 07:07:32 51°13.93 2°53.134 19.261731 0.081949 0.401191  
2002-04-23 07:07:37 51°13.921 2°53.109 19.112806 0.081949 0.40118  
2002-04-23 07:07:41 51°13.914 2°53.09 19.291618 0.081949 0.401175  
2002-04-23 07:07:47 51°13.903 2°53.061 19.090386 0.081949 0.401175  
2002-04-23 07:07:52 51°13.895 2°53.036 19.090386 0.081949 0.401175  
2002-04-23 07:07:57 51°13.886 2°53.012 19.457945 0.081949 0.401186  
2002-04-23 07:08:02 51°13.877 2°52.987 19.20012 0.081949 0.401186  
2002-04-23 07:08:07 51°13.867 2°52.962 19.276656 0.081949 0.401202  
2002-04-23 07:08:11 51°13.86 2°52.943 19.464265 0.081949 0.401197  
2002-04-23 07:08:17 51°13.85 2°52.913 19.408015 0.081949 0.401191  
2002-04-23 07:08:22 51°13.84 2°52.888 19.408015 0.081949 0.401191  
2002-04-23 07:08:27 51°13.832 2°52.863 19.31716 0.081949 0.40118  
2002-04-23 07:08:32 51°13.822 2°52.839 19.567145 0.081949 0.40118  
2002-04-23 07:08:37 51°13.813 2°52.814 19.539779 0.081949 0.401175  
2002-04-23 07:08:42 51°13.804 2°52.789 19.678777 0.081949 0.401175  
2002-04-23 07:08:47 51°13.795 2°52.764 19.481266 0.081949 0.40118  
2002-04-23 07:08:52 51°13.786 2°52.74 19.481266 0.081949 0.40118  
2002-04-23 07:08:57 51°13.776 2°52.715 -999 0.081949 0.40118  
2002-04-23 07:09:02 51°13.767 2°52.69 32.957552 0.081949 0.401175  
2002-04-23 07:09:07 51°13.758 2°52.666 32.651065 0.045243 0.215617  
2002-04-23 07:09:12 51°13.749 2°52.641 20.965228 0.001754 0.016948  
2002-04-23 07:09:17 51°13.74 2°52.617 21.21418 0.002049 0.018024  
2002-04-23 07:09:22 51°13.731 2°52.592 21.21418 0.002049 0.018024  
2002-04-23 07:09:27 51°13.722 2°52.567 18.566338 0.002049 0.018012  
2002-04-23 07:09:32 51°13.713 2°52.542 18.762659 0.002049 0.018001  
2002-04-23 07:09:37 51°13.704 2°52.518 18.720143 0.001951 0.017622  
2002-04-23 07:09:42 51°13.695 2°52.493 -999 0.001852 0.017247  
2002-04-23 07:09:47 51°13.686 2°52.468 20.318411 0.001852 0.017239  
2002-04-23 07:09:52 51°13.677 2°52.443 20.318411 0.001852 0.017239  
2002-04-23 07:09:57 51°13.668 2°52.418 19.814335 0.001754 0.016869  
2002-04-23 07:10:01 51°13.66 2°52.399 19.660441 0.001655 0.016503  
2002-04-23 07:10:07 51°13.65 2°52.369 19.600442 0.001655 0.016498  
2002-04-23 07:10:12 51°13.641 2°52.344 19.814214 0.001655 0.016495  
2002-04-23 07:10:17 51°13.631 2°52.32 19.691459 0.001556 0.016135  
2002-04-23 07:10:22 51°13.622 2°52.295 19.691459 0.001556 0.016135  
2002-04-23 07:10:27 51°13.613 2°52.27 20.19048 0.001556 0.016133  
2002-04-23 07:10:31 51°13.606 2°52.251 20.167312 0.001556 0.016131  
2002-04-23 07:10:37 51°13.595 2°52.221 20.215576 0.001556 0.01613  
2002-04-23 07:10:41 51°13.587 2°52.201 20.198833 0.001458 0.015774  
2002-04-23 07:10:47 51°13.576 2°52.172 20.394261 0.001458 0.015773  
2002-04-23 07:10:52 51°13.567 2°52.147 20.394261 0.001458 0.015773  
2002-04-23 07:10:57 51°13.558 2°52.122 20.208355 0.001458 0.015772  
2002-04-23 07:11:02 51°13.549 2°52.097 20.446391 0.001458 0.015771  
2002-04-23 07:11:07 51°13.54 2°52.072 20.329527 0.001359 0.01542  
2002-04-23 07:11:12 51°13.531 2°52.047 20.615227 0.001359 0.015418  
2002-04-23 07:11:17 51°13.522 2°52.023 20.51399 0.001359 0.015418  
2002-04-23 07:11:22 51°13.513 2°51.998 20.51399 0.001359 0.015418  
2002-04-23 07:11:27 51°13.504 2°51.974 20.586541 0.001359 0.015417  
2002-04-23 07:11:32 51°13.495 2°51.949 20.237518 0.001359 0.015417  
2002-04-23 07:11:37 51°13.486 2°51.924 20.593804 0.001359 0.015416  
2002-04-23 07:11:41 51°13.478 2°51.904 20.44619 0.001359 0.015415  
2002-04-23 07:11:47 51°13.467 2°51.875 20.569123 0.001261 0.015069  
2002-04-23 07:11:52 51°13.458 2°51.85 20.569123 0.001261 0.015069  
2002-04-23 07:11:57 51°13.449 2°51.825 20.442812 0.001261 0.015069  
2002-04-23 07:12:01 51°13.442 2°51.806 20.687794 0.001261 0.015068  
2002-04-23 07:12:07 51°13.431 2°51.776 20.913919 0.001261 0.015068  
2002-04-23 07:12:12 51°13.422 2°51.751 20.417716 0.001261 0.015067  
2002-04-23 07:12:17 51°13.413 2°51.726 20.307775 0.001261 0.015067  
2002-04-23 07:12:22 51°13.404 2°51.702 20.307775 0.001261 0.015067  
2002-04-23 07:12:27 51°13.395 2°51.677 20.430667 0.001261 0.015066  
2002-04-23 07:12:32 51°13.386 2°51.652 20.635281 0.001162 0.014725  
2002-04-23 07:12:37 51°13.377 2°51.627 20.58329 0.001162 0.014725  
2002-04-23 07:12:42 51°13.368 2°51.603 20.84802 0.001162 0.014725  
2002-04-23 07:12:47 51°13.359 2°51.578 25.89783 0.001162 0.014725  
2002-04-23 07:12:52 51°13.35 2°51.554 25.89783 0.001162 0.014725  
2002-04-23 07:12:57 51°13.341 2°51.529 25.249577 0.001162 0.014724  
2002-04-23 07:13:02 51°13.332 2°51.504 25.672024 0.001162 0.014724  
2002-04-23 07:13:07 51°13.323 2°51.48 26.494985 0.001162 0.014724  
2002-04-23 07:13:12 51°13.314 2°51.455 26.685985 0.001162 0.014724  
2002-04-23 07:13:17 51°13.305 2°51.431 26.348484 0.001162 0.014724  
2002-04-23 07:13:22 51°13.296 2°51.407 26.348484 0.001162 0.014724  
2002-04-23 07:13:27 51°13.287 2°51.382 26.536832 0.009739 0.050365  
2002-04-23 07:13:32 51°13.278 2°51.357 17.939361 0.007275 0.03956  
2002-04-23 07:13:37 51°13.269 2°51.333 14.679293 2.750129 17.373689  
2002-04-23 07:13:42 51°13.26 2°51.308 13.630829 3.13627 19.738846  
2002-04-23 07:13:47 51°13.251 2°51.284 12.877144 3.254019 20.169397  
2002-04-23 07:13:52 51°13.242 2°51.26 12.877144 3.254019 20.169397  
2002-04-23 07:13:57 51°13.233 2°51.235 12.330271 3.324927 20.74124  
2002-04-23 07:14:02 51°13.224 2°51.211 12.569952 3.414895 22.319559  
2002-04-23 07:14:07 51°13.215 2°51.186 12.432503 3.535553 25.346304  
2002-04-23 07:14:11 51°13.208 2°51.167 12.38489 3.67014 27.715428  
2002-04-23 07:14:17 51°13.197 2°51.137 12.304009 3.720051 28.519636  
2002-04-23 07:14:21 51°13.19 2°51.117 12.304009 3.720051 28.519636  
2002-04-23 07:14:27 51°13.18 2°51.088 12.332353 3.751628 29.367894  
2002-04-23 07:14:32 51°13.171 2°51.063 12.288292 3.759552 29.852406  
2002-04-23 07:14:37 51°13.162 2°51.039 11.909966 3.757247 29.824655  
2002-04-23 07:14:42 51°13.153 2°51.014 11.959697 3.744827 30.152091  
2002-04-23 07:14:47 51°13.144 2°50.99 11.959515 3.731004 30.457275  
2002-04-23 07:14:52 51°13.135 2°50.965 11.959515 3.731004 30.457275  
2002-04-23 07:14:57 51°13.127 2°50.941 12.360957 3.711768 30.61012  
2002-04-23 07:15:02 51°13.118 2°50.916 11.836942 3.693633 30.642572  
2002-04-23 07:15:07 51°13.109 2°50.892 12.236949 3.679005 30.655399  
2002-04-23 07:15:12 51°13.1 2°50.867 12.049364 3.663574 30.630497  
2002-04-23 07:15:17 51°13.091 2°50.843 12.113253 3.653555 30.613445  
2002-04-23 07:15:22 51°13.082 2°50.818 12.113253 3.653555 30.613445  
2002-04-23 07:15:27 51°13.073 2°50.794 12.320809 3.640931 30.607154  
2002-04-23 07:15:32 51°13.064 2°50.769 12.098763 3.631913 30.551747  
2002-04-23 07:15:37 51°13.056 2°50.745 12.407909 3.619187 30.408525  
2002-04-23 07:15:42 51°13.047 2°50.72 12.182662 3.609669 30.372006  
2002-04-23 07:15:47 51°13.038 2°50.696 12.154753 3.60005 30.325734  
2002-04-23 07:15:52 51°13.029 2°50.671 12.154753 3.60005 30.325734  
2002-04-23 07:15:57 51°13.02 2°50.646 12.083407 3.591435 30.330633  
2002-04-23 07:16:02 51°13.011 2°50.622 12.082316 3.581917 30.325261  
2002-04-23 07:16:07 51°13.002 2°50.598 12.097945 3.576909 30.409161  
2002-04-23 07:16:12 51°12.993 2°50.573 12.057319 3.569496 30.417034  
2002-04-23 07:16:17 51°12.984 2°50.548 11.825995 3.563885 30.331677  
2002-04-23 07:16:22 51°12.975 2°50.524 11.825995 3.563885 30.331677  
2002-04-23 07:16:27 51°12.967 2°50.499 12.118022 3.558075 30.350158  
2002-04-23 07:16:32 51°12.958 2°50.475 11.874786 3.553766 30.3195  
2002-04-23 07:16:37 51°12.949 2°50.45 11.888642 3.548657 30.273007  
2002-04-23 07:16:42 51°12.94 2°50.426 12.060229 3.543547 30.265123  
2002-04-23 07:16:47 51°12.931 2°50.401 11.956874 3.53954 30.231563  
2002-04-23 07:16:52 51°12.922 2°50.377 11.956874 3.53954 30.231563  
2002-04-23 07:16:57 51°12.913 2°50.352 12.011028 3.535933 30.22459  
2002-04-23 07:17:01 51°12.906 2°50.333 12.271348 3.531825 30.123743  
2002-04-23 07:17:07 51°12.896 2°50.303 11.975947 3.527918 30.101237  
2002-04-23 07:17:12 51°12.887 2°50.279 11.930829 3.524312 30.152281  
2002-04-23 07:17:17 51°12.878 2°50.254 11.894611 3.52311 30.146561  
2002-04-23 07:17:21 51°12.871 2°50.234 11.894611 3.52311 30.146561  
2002-04-23 07:17:27 51°12.86 2°50.205 11.834388 3.520405 30.159508  
2002-04-23 07:17:32 51°12.851 2°50.18 12.101943 3.517801 30.14996  
2002-04-23 07:17:37 51°12.842 2°50.156 11.95437 3.515396 30.141043  
2002-04-23 07:17:41 51°12.835 2°50.136 12.060456 3.513693 30.134354  
2002-04-23 07:17:47 51°12.824 2°50.107 12.166281 3.509986 30.101613  
2002-04-23 07:17:52 51°12.815 2°50.083 12.166281 3.509986 30.101613  
2002-04-23 07:17:57 51°12.805 2°50.059 12.050819 3.507483 30.143176  
2002-04-23 07:18:02 51°12.796 2°50.036 11.979998 3.50618 30.079957  
2002-04-23 07:18:07 51°12.785 2°50.013 11.943352 3.503175 30.084314  
2002-04-23 07:18:12 51°12.775 2°49.989 11.978678 3.501572 30.086814  
2002-04-23 07:18:17 51°12.765 2°49.967 12.077408 3.50057 30.051252  
2002-04-23 07:18:22 51°12.755 2°49.944 12.077408 3.50057 30.051252  
2002-04-23 07:18:27 51°12.744 2°49.921 12.050364 3.497264 30.057804  
2002-04-23 07:18:32 51°12.734 2°49.897 11.971532 3.496161 29.96251  
2002-04-23 07:18:37 51°12.724 2°49.875 12.029858 3.494459 30.022812  
2002-04-23 07:18:41 51°12.716 2°49.856 11.774383 3.492856 30.006899  
2002-04-23 07:18:47 51°12.704 2°49.829 12.043226 3.492154 29.990717  
2002-04-23 07:18:52 51°12.694 2°49.805 12.043226 3.492154 29.990717  
2002-04-23 07:18:57 51°12.684 2°49.782 11.777122 3.48995 29.976044  
2002-04-23 07:19:02 51°12.674 2°49.759 11.925226 3.489249 29.978222  
2002-04-23 07:19:07 51°12.664 2°49.736 11.79223 3.487046 30.046068  
2002-04-23 07:19:12 51°12.654 2°49.712 11.951821 3.485543 30.013896  
2002-04-23 07:19:17 51°12.644 2°49.688 12.279821 3.484341 30.013852  
2002-04-23 07:19:22 51°12.634 2°49.665 12.279821 3.484341 30.013852  
2002-04-23 07:19:27 51°12.624 2°49.642 11.87082 3.482839 29.992503  
2002-04-23 07:19:32 51°12.615 2°49.618 11.793965 3.481536 29.96483  
2002-04-23 07:19:37 51°12.605 2°49.594 11.860973 3.480634 29.962564  
2002-04-23 07:19:42 51°12.595 2°49.571 11.718436 3.478531 30.000281  
2002-04-23 07:19:47 51°12.586 2°49.547 11.824079 3.477429 29.965578  
2002-04-23 07:19:52 51°12.576 2°49.524 11.824079 3.477429 29.965578  
2002-04-23 07:19:57 51°12.566 2°49.5 11.589601 3.475526 29.955004  
2002-04-23 07:20:02 51°12.556 2°49.477 11.781732 3.474523 29.889659  
2002-04-23 07:20:07 51°12.546 2°49.454 11.772968 3.47282 29.887954  
2002-04-23 07:20:11 51°12.538 2°49.435 11.878068 3.472019 29.920214  
2002-04-23 07:20:17 51°12.526 2°49.407 11.614592 3.471619 29.954496  
2002-04-23 07:20:21 51°12.519 2°49.388 11.614592 3.471619 29.954496  
2002-04-23 07:20:27 51°12.507 2°49.36 11.650048 3.469615 29.927694  
2002-04-23 07:20:32 51°12.497 2°49.337 11.84018 3.468614 29.935903  
2002-04-23 07:20:37 51°12.487 2°49.313 11.945583 3.467512 29.934892  
2002-04-23 07:20:42 51°12.477 2°49.29 11.830191 3.467111 29.909447  
2002-04-23 07:20:47 51°12.467 2°49.267 11.991875 3.465208 29.905839  
2002-04-23 07:20:52 51°12.457 2°49.244 11.991875 3.465208 29.905839  
2002-04-23 07:20:57 51°12.447 2°49.221 11.792687 3.464407 29.908334  
2002-04-23 07:21:02 51°12.437 2°49.197 11.877612 3.463806 29.905756  
2002-04-23 07:21:07 51°12.427 2°49.174 11.64401 3.461201 29.870656  
2002-04-23 07:21:12 51°12.417 2°49.15 12.208156 3.461302 29.932039  
2002-04-23 07:21:17 51°12.408 2°49.127 12.03245 3.459097 29.876547  
2002-04-23 07:21:22 51°12.397 2°49.104 12.03245 3.459097 29.876547  
2002-04-23 07:21:27 51°12.387 2°49.081 11.834889 3.46 29.9374  
2002-04-23 07:21:32 51°12.378 2°49.057 11.835482 3.456894 29.896131  
2002-04-23 07:21:37 51°12.368 2°49.034 11.616697 3.457094 29.843392  
2002-04-23 07:21:42 51°12.358 2°49.011 11.908281 3.455491 29.870591  
2002-04-23 07:21:47 51°12.348 2°48.988 11.798893 3.455091 29.908142  
2002-04-23 07:21:52 51°12.338 2°48.964 11.798893 3.455091 29.908142  
2002-04-23 07:21:57 51°12.328 2°48.941 11.911561 3.453187 29.858037  
2002-04-23 07:22:02 51°12.319 2°48.917 11.991056 3.452486 29.870399  
2002-04-23 07:22:07 51°12.309 2°48.894 11.835573 3.451485 29.87607  
2002-04-23 07:22:12 51°12.299 2°48.871 12.209471 3.451184 29.850269  
2002-04-23 07:22:17 51°12.289 2°48.848 11.690056 3.449581 29.825998  
2002-04-23 07:22:22 51°12.279 2°48.825 11.690056 3.449581 29.825998  
2002-04-23 07:22:27 51°12.27 2°48.801 11.952413 3.449581 29.841253  
2002-04-23 07:22:32 51°12.26 2°48.778 11.766439 3.448279 29.849754  
2002-04-23 07:22:37 51°12.25 2°48.755 11.95 3.447678 29.868831  
2002-04-23 07:22:42 51°12.24 2°48.732 11.912836 3.446676 29.827369  
2002-04-23 07:22:47 51°12.23 2°48.709 11.843235 3.446977 29.848075  
2002-04-23 07:22:52 51°12.22 2°48.686 11.843235 3.446977 29.848075  
2002-04-23 07:22:57 51°12.211 2°48.662 11.993331 3.446075 29.839417  
2002-04-23 07:23:02 51°12.201 2°48.639 11.919624 3.444673 29.808778  
2002-04-23 07:23:07 51°12.191 2°48.616 12.10594 3.444773 29.818005  
2002-04-23 07:23:12 51°12.181 2°48.593 11.955327 3.44337 29.801364  
2002-04-23 07:23:17 51°12.172 2°48.569 12.255714 3.44307 29.823288  
2002-04-23 07:23:21 51°12.164 2°48.551 12.255714 3.44307 29.823288  
2002-04-23 07:23:27 51°12.152 2°48.523 11.883264 3.443371 29.825538  
2002-04-23 07:23:32 51°12.142 2°48.5 11.767854 3.441367 29.792303  
2002-04-23 07:23:37 51°12.132 2°48.477 11.883309 3.440766 29.765576  
2002-04-23 07:23:42 51°12.123 2°48.453 11.699792 3.440265 29.770927  
2002-04-23 07:23:47 51°12.112 2°48.431 12.000701 3.439764 29.774375  
2002-04-23 07:23:52 51°12.102 2°48.408 12.000701 3.439764 29.774375  
2002-04-23 07:23:57 51°12.093 2°48.384 12.011119 3.439464 29.77975  
2002-04-23 07:24:02 51°12.083 2°48.361 12.114298 3.438663 29.788585  
2002-04-23 07:24:07 51°12.073 2°48.338 11.895249 3.438061 29.754856  
2002-04-23 07:24:12 51°12.063 2°48.315 12.008208 3.43726 29.769392  
2002-04-23 07:24:17 51°12.053 2°48.291 11.971532 3.436759 29.749339  
2002-04-23 07:24:22 51°12.043 2°48.268 11.971532 3.436759 29.749339  
2002-04-23 07:24:27 51°12.033 2°48.245 11.824991 3.436659 29.767433  
2002-04-23 07:24:32 51°12.024 2°48.222 11.980134 3.436459 29.764237  
2002-04-23 07:24:37 51°12.014 2°48.199 12.013075 3.435557 29.756849  
2002-04-23 07:24:42 51°12.004 2°48.176 11.762467 3.435156 29.754907  
2002-04-23 07:24:47 51°11.994 2°48.152 12.095492 3.434655 29.747555  
2002-04-23 07:24:52 51°11.984 2°48.129 12.095492 3.434655 29.747555  
2002-04-23 07:24:57 51°11.975 2°48.105 12.019807 3.434255 29.746248  
2002-04-23 07:25:02 51°11.966 2°48.081 12.246468 3.433754 29.740167  
2002-04-23 07:25:07 51°11.956 2°48.058 11.615782 3.433453 29.736011  
2002-04-23 07:25:12 51°11.947 2°48.035 12.026947 3.433253 29.744249  
2002-04-23 07:25:17 51°11.938 2°48.011 11.916982 3.433153 29.724875  
2002-04-23 07:25:22 51°11.929 2°47.987 11.916982 3.433153 29.724875  
2002-04-23 07:25:27 51°11.92 2°47.964 11.954188 3.432652 29.728315  
2002-04-23 07:25:32 51°11.91 2°47.94 12.069273 3.432852 29.719452  
2002-04-23 07:25:37 51°11.901 2°47.916 12.150259 3.432552 29.731797  
2002-04-23 07:25:42 51°11.892 2°47.892 12.039407 3.432652 29.72895  
2002-04-23 07:25:47 51°11.883 2°47.868 12.148579 3.432852 29.74167  
2002-04-23 07:25:52 51°11.874 2°47.845 12.148579 3.432852 29.74167  
2002-04-23 07:25:57 51°11.864 2°47.821 11.84132 3.433053 29.741689  
2002-04-23 07:26:02 51°11.855 2°47.798 12.292188 3.433153 29.744557  
2002-04-23 07:26:07 51°11.846 2°47.774 11.735568 3.433253 29.743614  
2002-04-23 07:26:12 51°11.836 2°47.75 11.852401 3.433453 29.745538  
2002-04-23 07:26:17 51°11.827 2°47.727 12.03586 3.433453 29.747444  
2002-04-23 07:26:22 51°11.818 2°47.703 12.03586 3.433453 29.747444  
2002-04-23 07:26:27 51°11.808 2°47.679 11.735431 3.433353 29.747753  
2002-04-23 07:26:32 51°11.799 2°47.655 12.109347 3.433253 29.742343  
2002-04-23 07:26:37 51°11.79 2°47.632 11.922539 3.432953 29.743268  
2002-04-23 07:26:42 51°11.781 2°47.608 11.888824 3.432852 29.74167  
2002-04-23 07:26:47 51°11.772 2°47.584 11.743881 3.432552 29.738148  
2002-04-23 07:26:52 51°11.762 2°47.561 11.743881 3.432552 29.738148  
2002-04-23 07:26:57 51°11.753 2°47.537 11.818331 3.432151 29.734934  
2002-04-23 07:27:02 51°11.743 2°47.514 12.013303 3.432251 29.733356  
2002-04-23 07:27:07 51°11.734 2°47.49 11.971031 3.432352 29.737494  
2002-04-23 07:27:12 51°11.725 2°47.467 11.787392 3.432852 29.742941  
2002-04-23 07:27:17 51°11.716 2°47.443 12.119248 3.432352 29.736223  
2002-04-23 07:27:22 51°11.706 2°47.42 12.119248 3.432352 29.736223  
2002-04-23 07:27:27 51°11.697 2°47.396 11.96648 3.432552 29.736878  
2002-04-23 07:27:32 51°11.688 2°47.372 11.627587 3.432852 29.734049  
2002-04-23 07:27:37 51°11.678 2°47.349 12.263056 3.432752 29.738802  
2002-04-23 07:27:42 51°11.669 2°47.325 12.189739 3.433053 29.743595  
2002-04-23 07:27:47 51°11.66 2°47.301 11.963976 3.432953 29.740091  
2002-04-23 07:27:52 51°11.65 2°47.278 11.963976 3.432953 29.740091  
2002-04-23 07:27:57 51°11.641 2°47.254 11.933379 3.433453 29.741727  
2002-04-23 07:28:01 51°11.634 2°47.235 12.082452 3.433153 29.7363  
2002-04-23 07:28:07 51°11.623 2°47.207 11.896206 3.433253 29.738532  
2002-04-23 07:28:12 51°11.614 2°47.184 11.703951 3.433353 29.734414  
2002-04-23 07:28:17 51°11.604 2°47.16 11.898576 3.434054 29.740513  
2002-04-23 07:28:22 51°11.595 2°47.137 11.898576 3.434054 29.740513  
2002-04-23 07:28:27 51°11.585 2°47.114 12.078772 3.434455 29.75389  
2002-04-23 07:28:32 51°11.576 2°47.09 11.858283 3.434455 29.750713  
2002-04-23 07:28:37 51°11.567 2°47.067 11.870228 3.434756 29.755506  
2002-04-23 07:28:42 51°11.558 2°47.043 11.97176 3.435257 29.761589  
2002-04-23 07:28:47 51°11.548 2°47.02 12.44805 3.435457 29.752711  
2002-04-23 07:28:52 51°11.539 2°46.996 12.44805 3.435457 29.752711  
2002-04-23 07:28:57 51°11.53 2°46.973 11.864575 3.435757 29.753056  
2002-04-23 07:29:02 51°11.52 2°46.95 11.942213 3.435958 29.763875  
2002-04-23 07:29:07 51°11.511 2°46.926 11.942578 3.436859 29.759826  
2002-04-23 07:29:12 51°11.502 2°46.903 12.062683 3.436659 29.762349  
2002-04-23 07:29:17 51°11.492 2°46.88 12.248689 3.436859 29.770628  
2002-04-23 07:29:22 51°11.483 2°46.856 12.248689 3.436859 29.770628  
2002-04-23 07:29:27 51°11.474 2°46.833 11.951593 3.43706 29.77001  
2002-04-23 07:29:32 51°11.464 2°46.81 11.844239 3.437861 29.775164  
2002-04-23 07:29:37 51°11.455 2°46.786 12.134687 3.437561 29.776728  
2002-04-23 07:29:41 51°11.448 2°46.767 12.05841 3.437961 29.782485  
2002-04-23 07:29:47 51°11.437 2°46.739 11.790496 3.438061 29.781539  
2002-04-23 07:29:52 51°11.427 2°46.716 11.790496 3.438061 29.781539  
2002-04-23 07:29:57 51°11.418 2°46.692 12.352631 3.438162 29.786318  
2002-04-23 07:30:02 51°11.409 2°46.669 12.088859 3.438362 29.78697  
2002-04-23 07:30:07 51°11.4 2°46.645 12.162196 3.438762 29.775559  
2002-04-23 07:30:12 51°11.39 2°46.622 12.014349 3.439063 29.78671  
2002-04-23 07:30:17 51°11.381 2°46.598 12.233639 3.439363 29.772435  
2002-04-23 07:30:22 51°11.372 2°46.575 12.233639 3.439363 29.772435  
2002-04-23 07:30:27 51°11.362 2°46.552 12.012347 3.440065 29.796331  
2002-04-23 07:30:32 51°11.353 2°46.528 12.089222 3.440065 29.79824  
2002-04-23 07:30:37 51°11.343 2°46.505 12.121791 3.440165 29.796657  
2002-04-23 07:30:42 51°11.334 2°46.481 11.899578 3.440265 29.794439  
2002-04-23 07:30:47 51°11.325 2°46.458 12.041862 3.441768 29.817145  
2002-04-23 07:30:52 51°11.316 2°46.435 12.041862 3.441768 29.817145  
2002-04-23 07:30:57 51°11.306 2°46.412 11.854635 3.441868 29.806651  
2002-04-23 07:31:01 51°11.299 2°46.393 11.89493 3.442669 29.816257  
2002-04-23 07:31:07 51°11.288 2°46.365 12.106803 3.44287 29.826458  
2002-04-23 07:31:12 51°11.278 2°46.341 11.964932 3.443271 29.830944  
2002-04-23 07:31:17 51°11.269 2°46.318 12.032541 3.443471 29.83478  
2002-04-23 07:31:22 51°11.259 2°46.295 12.032541 3.443471 29.83478  
2002-04-23 07:31:27 51°11.25 2°46.271 11.691656 3.443571 29.838292  
2002-04-23 07:31:32 51°11.241 2°46.248 11.803183 3.444072 29.839918  
2002-04-23 07:31:37 51°11.231 2°46.224 11.948224 3.444272 29.834836  
2002-04-23 07:31:42 51°11.222 2°46.201 11.984639 3.444973 29.83775  
2002-04-23 07:31:47 51°11.213 2°46.177 12.091676 3.444974 29.840298  
2002-04-23 07:31:52 51°11.203 2°46.154 12.091676 3.444974 29.840298  
2002-04-23 07:31:57 51°11.194 2°46.13 12.207067 3.446376 29.863333  
2002-04-23 07:32:02 51°11.184 2°46.107 12.246876 3.446176 29.870338  
2002-04-23 07:32:07 51°11.175 2°46.083 11.801266 3.446877 29.876441  
2002-04-23 07:32:12 51°11.166 2°46.059 11.913702 3.447679 29.88606  
2002-04-23 07:32:17 51°11.156 2°46.035 12.058274 3.448079 29.892466  
2002-04-23 07:32:22 51°11.147 2°46.012 12.058274 3.448079 29.892466  
2002-04-23 07:32:27 51°11.137 2°45.989 11.945674 3.44858 29.887704  
2002-04-23 07:32:32 51°11.128 2°45.965 11.911105 3.448179 29.889598  
2002-04-23 07:32:37 51°11.119 2°45.942 11.906139 3.44828 29.896948  
2002-04-23 07:32:42 51°11.109 2°45.918 11.872324 3.44848 29.902069  
2002-04-23 07:32:47 51°11.1 2°45.895 11.986278 3.449281 29.886784  
2002-04-23 07:32:52 51°11.091 2°45.871 11.986278 3.449281 29.886784  
2002-04-23 07:32:57 51°11.081 2°45.848 12.136367 3.449081 29.876566  
2002-04-23 07:33:02 51°11.072 2°45.824 12.133144 3.449482 29.904034  
2002-04-23 07:33:07 51°11.062 2°45.801 12.022991 3.449783 29.919069  
2002-04-23 07:33:12 51°11.053 2°45.777 12.055728 3.449782 29.912675  
2002-04-23 07:33:17 51°11.043 2°45.754 12.021672 3.449181 29.902422  
2002-04-23 07:33:22 51°11.034 2°45.73 12.021672 3.449181 29.902422  
2002-04-23 07:33:27 51°11.025 2°45.707 11.873145 3.449081 29.886773  
2002-04-23 07:33:32 51°11.015 2°45.683 12.241074 3.448981 29.910082  
2002-04-23 07:33:37 51°11.006 2°45.66 11.87196 3.448881 29.893146  
2002-04-23 07:33:41 51°10.998 2°45.641 11.834388 3.44858 29.901115  
2002-04-23 07:33:47 51°10.987 2°45.613 12.007298 3.448781 29.900486  
2002-04-23 07:33:52 51°10.978 2°45.59 12.007298 3.448781 29.900486  
2002-04-23 07:33:57 51°10.968 2°45.567 12.161924 3.44878 29.884523  
2002-04-23 07:34:02 51°10.959 2°45.543 11.821114 3.448781 29.894738  
2002-04-23 07:34:07 51°10.949 2°45.52 11.971623 3.44868 29.882923  
2002-04-23 07:34:12 51°10.94 2°45.496 11.97936 3.44848 29.898874  
2002-04-23 07:34:17 51°10.931 2°45.473 11.67529 3.449482 29.905312  
2002-04-23 07:34:22 51°10.921 2°45.45 11.67529 3.449482 29.905312  
2002-04-23 07:34:27 51°10.912 2°45.426 11.78648 3.449783 29.923546  
2002-04-23 07:34:32 51°10.903 2°45.403 11.821889 3.450083 29.920041  
2002-04-23 07:34:37 51°10.893 2°45.38 11.747489 3.450083 29.92196  
2002-04-23 07:34:42 51°10.884 2°45.356 11.971077 3.450083 29.925158  
2002-04-23 07:34:47 51°10.875 2°45.333 12.082452 3.450484 29.91814  
2002-04-23 07:34:52 51°10.866 2°45.31 12.082452 3.450484 29.91814  
2002-04-23 07:34:57 51°10.856 2°45.287 11.892652 3.450684 29.911758  
2002-04-23 07:35:01 51°10.849 2°45.268 11.777533 3.450383 29.907591  
2002-04-23 07:35:07 51°10.838 2°45.24 12.030949 3.451085 29.92456  
2002-04-23 07:35:12 51°10.829 2°45.216 11.772192 3.451185 29.93  
2002-04-23 07:35:17 51°10.819 2°45.193 11.728076 3.451586 29.930016  
2002-04-23 07:35:22 51°10.81 2°45.17 11.728076 3.451586 29.930016  
2002-04-23 07:35:27 51°10.801 2°45.147 11.956601 3.452387 29.943483  
2002-04-23 07:35:32 51°10.791 2°45.123 11.878387 3.451986 29.931951  
2002-04-23 07:35:37 51°10.782 2°45.1 11.83644 3.452487 29.949568  
2002-04-23 07:35:42 51°10.773 2°45.077 11.984821 3.452487 29.955972  
2002-04-23 07:35:47 51°10.764 2°45.054 11.83571 3.45389 29.959219  
2002-04-23 07:35:52 51°10.755 2°45.03 11.83571 3.45389 29.959219  
2002-04-23 07:35:57 51°10.745 2°45.007 11.947632 3.45399 29.976843  
2002-04-23 07:36:02 51°10.736 2°44.984 11.983229 3.45379 29.967223  
2002-04-23 07:36:07 51°10.726 2°44.96 12.097082 3.453589 29.970422  
2002-04-23 07:36:12 51°10.717 2°44.937 11.911014 3.45379 29.958255  
2002-04-23 07:36:17 51°10.708 2°44.914 12.0984 3.453689 29.956011  
2002-04-23 07:36:22 51°10.699 2°44.89 12.0984 3.453689 29.956011  
2002-04-23 07:36:27 51°10.689 2°44.867 11.912062 3.45399 29.942902  
2002-04-23 07:36:32 51°10.68 2°44.844 11.912107 3.454591 29.95316  
2002-04-23 07:36:37 51°10.671 2°44.82 11.984184 3.454892 29.979751  
2002-04-23 07:36:42 51°10.661 2°44.797 11.94531 3.454992 29.996752  
2002-04-23 07:36:47 51°10.652 2°44.774 12.051637 3.455693 30.000937  
2002-04-23 07:36:52 51°10.643 2°44.75 12.051637 3.455693 30.000937  
2002-04-23 07:36:57 51°10.633 2°44.727 11.788488 3.455693 30.008  
2002-04-23 07:37:02 51°10.624 2°44.703 11.786525 3.455293 30.001572  
2002-04-23 07:37:07 51°10.614 2°44.68 11.96871 3.455693 30.000296  
2002-04-23 07:37:12 51°10.605 2°44.657 11.705687 3.455293 30.000288  
2002-04-23 07:37:17 51°10.596 2°44.633 11.921218 3.455593 29.998689  
2002-04-23 07:37:21 51°10.589 2°44.614 11.921218 3.455593 29.998689  
2002-04-23 07:37:27 51°10.578 2°44.586 11.953505 3.455693 30.001579  
2002-04-23 07:37:32 51°10.568 2°44.563 11.874376 3.455794 30.008965  
2002-04-23 07:37:37 51°10.559 2°44.54 11.793463 3.456295 30.013147  
2002-04-23 07:37:42 51°10.549 2°44.516 11.871185 3.456295 30.017001  
2002-04-23 07:37:47 51°10.54 2°44.493 12.013484 3.455994 30.016676  
2002-04-23 07:37:52 51°10.531 2°44.47 12.013484 3.455994 30.016676  
2002-04-23 07:37:57 51°10.522 2°44.446 12.01726 3.456094 30.023425  
2002-04-23 07:38:02 51°10.512 2°44.423 11.902266 3.455894 30.015068  
2002-04-23 07:38:07 51°10.503 2°44.4 12.198812 3.456094 30.020212  
2002-04-23 07:38:12 51°10.494 2°44.377 12.006843 3.455894 30.004793  
2002-04-23 07:38:17 51°10.484 2°44.354 12.268131 3.455694 30.017636  
2002-04-23 07:38:22 51°10.475 2°44.33 12.268131 3.455694 30.017636  
2002-04-23 07:38:27 51°10.466 2°44.307 11.967754 3.456094 30.029855  
2002-04-23 07:38:32 51°10.457 2°44.283 12.075363 3.455894 30.025352  
2002-04-23 07:38:37 51°10.447 2°44.26 11.966116 3.455794 30.027602  
2002-04-23 07:38:42 51°10.438 2°44.236 11.885132 3.455594 30.022456  
2002-04-23 07:38:47 51°10.428 2°44.213 11.851444 3.456395 30.025035  
2002-04-23 07:38:52 51°10.419 2°44.19 11.851444 3.456395 30.025035  
2002-04-23 07:38:57 51°10.41 2°44.167 12.253131 3.456495 30.035003  
2002-04-23 07:39:02 51°10.401 2°44.144 12.14177 3.456595 30.034682  
2002-04-23 07:39:07 51°10.391 2°44.121 12.023718 3.456996 30.050772  
2002-04-23 07:39:12 51°10.382 2°44.097 11.681142 3.456696 30.046587  
2002-04-23 07:39:17 51°10.373 2°44.074 12.168958 3.456896 30.034363  
2002-04-23 07:39:22 51°10.364 2°44.051 12.168958 3.456896 30.034363  
2002-04-23 07:39:27 51°10.354 2°44.027 11.831286 3.457096 30.026649  
2002-04-23 07:39:31 51°10.347 2°44.009 11.831925 3.457297 30.04852  
2002-04-23 07:39:37 51°10.335 2°43.981 12.050319 3.457597 30.062365  
2002-04-23 07:39:42 51°10.326 2°43.958 12.124834 3.457397 30.06301  
2002-04-23 07:39:47 51°10.317 2°43.935 11.933789 3.457397 30.062365  
2002-04-23 07:39:52 51°10.307 2°43.912 11.933789 3.457397 30.062365  
2002-04-23 07:39:57 51°10.298 2°43.888 11.821022 3.457397 30.048198  
2002-04-23 07:40:02 51°10.289 2°43.865 12.081589 3.457297 30.053026  
2002-04-23 07:40:07 51°10.279 2°43.842 11.927367 3.457397 30.061077  
2002-04-23 07:40:12 51°10.27 2°43.819 11.818787 3.457497 30.077514  
2002-04-23 07:40:17 51°10.26 2°43.796 12.004113 3.457698 30.081382  
2002-04-23 07:40:22 51°10.251 2°43.772 12.004113 3.457698 30.081382  
2002-04-23 07:40:27 51°10.242 2°43.749 11.515397 3.457497 30.078804  
2002-04-23 07:40:32 51°10.234 2°43.725 11.855593 3.457197 30.084291  
2002-04-23 07:40:37 51°10.226 2°43.7 11.967891 3.457397 30.063654  
2002-04-23 07:40:42 51°10.218 2°43.675 12.343896 3.457597 30.057212  
2002-04-23 07:40:47 51°10.212 2°43.65 11.865167 3.457597 30.059144  
2002-04-23 07:40:52 51°10.205 2°43.624 11.865167 3.457597 30.059144  
2002-04-23 07:40:56 51°10.202 2°43.603 11.798118 3.457998 30.089445  
2002-04-23 07:41:02 51°10.197 2°43.571 11.766074 3.458098 30.058177  
2002-04-23 07:41:07 51°10.194 2°43.544 11.576873 3.458599 30.075249  
2002-04-23 07:41:12 51°10.193 2°43.517 11.952959 3.4589 30.07428  
2002-04-23 07:41:17 51°10.193 2°43.489 11.916754 3.459301 30.104598  
2002-04-23 07:41:22 51°10.194 2°43.462 11.916754 3.459301 30.104598  
2002-04-23 07:41:27 51°10.197 2°43.435 11.878205 3.459601 30.110083  
2002-04-23 07:41:32 51°10.2 2°43.408 11.763882 3.459902 30.108462  
2002-04-23 07:41:37 51°10.204 2°43.381 11.65357 3.460002 30.108783  
2002-04-23 07:41:42 51°10.21 2°43.354 11.462854 3.460303 30.123962  
2002-04-23 07:41:47 51°10.215 2°43.328 11.41899 3.460703 30.129771  
2002-04-23 07:41:52 51°10.221 2°43.302 11.41899 3.460703 30.129771  
2002-04-23 07:41:57 51°10.227 2°43.275 11.678902 3.461605 30.139125  
2002-04-23 07:42:02 51°10.232 2°43.248 11.44923 3.460703 30.131711  
2002-04-23 07:42:07 51°10.236 2°43.221 11.970667 3.461405 30.134603  
2002-04-23 07:42:12 51°10.241 2°43.194 11.478997 3.459802 30.115247  
2002-04-23 07:42:17 51°10.244 2°43.167 11.743104 3.460403 30.112006  
2002-04-23 07:42:22 51°10.247 2°43.14 11.743104 3.460403 30.112006  
2002-04-23 07:42:27 51°10.249 2°43.112 11.355804 3.460703 30.116844  
2002-04-23 07:42:32 51°10.251 2°43.085 12.028357 3.459701 30.107174  
2002-04-23 07:42:37 51°10.254 2°43.057 11.875925 3.459501 30.105886  
2002-04-23 07:42:42 51°10.255 2°43.03 11.944809 3.459201 30.11009  
2002-04-23 07:42:47 51°10.258 2°43.003 11.877156 3.4591 30.093626  
2002-04-23 07:42:52 51°10.26 2°42.975 11.877156 3.4591 30.093626  
2002-04-23 07:42:57 51°10.263 2°42.948 11.732827 3.4591 30.101372  
2002-04-23 07:43:02 51°10.265 2°42.92 11.809297 3.459 30.105572  
2002-04-23 07:43:07 51°10.266 2°42.893 11.884768 3.459201 30.110736  
2002-04-23 07:43:12 51°10.265 2°42.865 11.623469 3.459601 30.119129  
2002-04-23 07:43:17 51°10.263 2°42.839 11.80729 3.459201 30.119784  
2002-04-23 07:43:22 51°10.26 2°42.812 11.80729 3.459201 30.119784  
2002-04-23 07:43:27 51°10.257 2°42.785 11.620587 3.4589 30.110419  
2002-04-23 07:43:32 51°10.252 2°42.759 11.553196 3.4586 30.103641  
2002-04-23 07:43:37 51°10.247 2°42.733 12.001475 3.4588 30.106221  
2002-04-23 07:43:42 51°10.242 2°42.707 11.676479 3.4588 30.104283  
2002-04-23 07:43:47 51°10.236 2°42.681 11.83156 3.458499 30.097507  
2002-04-23 07:43:52 51°10.231 2°42.655 11.83156 3.458499 30.097507  
2002-04-23 07:43:57 51°10.226 2°42.629 11.988735 3.458399 30.105582  
2002-04-23 07:44:02 51°10.221 2°42.602 11.91516 3.458199 30.105586  
2002-04-23 07:44:07 51°10.216 2°42.576 11.70747 3.458199 30.106878  
2002-04-23 07:44:12 51°10.211 2°42.549 11.813997 3.4588 30.119147  
2002-04-23 07:44:17 51°10.207 2°42.523 12.184749 3.4589 30.124641  
2002-04-23 07:44:22 51°10.203 2°42.496 12.184749 3.4589 30.124641  
2002-04-23 07:44:27 51°10.199 2°42.469 11.558052 3.459301 30.128513  
2002-04-23 07:44:32 51°10.195 2°42.442 12.110028 3.460203 30.133988  
2002-04-23 07:44:37 51°10.192 2°42.415 11.878751 3.460804 30.142383  
2002-04-23 07:44:42 51°10.188 2°42.388 12.196635 3.461205 30.154671  
2002-04-23 07:44:47 51°10.185 2°42.361 11.784791 3.461505 30.153043  
2002-04-23 07:44:52 51°10.182 2°42.334 11.784791 3.461505 30.153043  
2002-04-23 07:44:57 51°10.179 2°42.307 11.558418 3.461605 30.153363  
2002-04-23 07:45:02 51°10.176 2°42.28 12.218813 3.462307 30.158196  
2002-04-23 07:45:07 51°10.172 2°42.253 12.10694 3.462607 30.157863  
2002-04-23 07:45:12 51°10.169 2°42.226 12.058183 3.462707 30.156888  
2002-04-23 07:45:17 51°10.165 2°42.199 11.306766 3.462807 30.153325  
2002-04-23 07:45:22 51°10.162 2°42.172 11.306766 3.462807 30.153325  
2002-04-23 07:45:27 51°10.158 2°42.145 11.56712 3.462807 30.150736  
2002-04-23 07:45:32 51°10.155 2°42.118 11.719807 3.462807 30.155266  
2002-04-23 07:45:37 51°10.151 2°42.091 11.762467 3.462908 30.156881  
2002-04-23 07:45:42 51°10.148 2°42.064 12.10694 3.463108 30.159464  
2002-04-23 07:45:47 51°10.144 2°42.037 11.419862 3.463709 30.157503  
2002-04-23 07:45:52 51°10.141 2°42.01 11.419862 3.463709 30.157503  
2002-04-23 07:45:57 51°10.137 2°41.984 11.350337 3.463909 30.165912  
2002-04-23 07:46:02 51°10.134 2°41.957 11.76064 3.46411 30.169142  
2002-04-23 07:46:07 51°10.131 2°41.93 11.467257 3.46421 30.17594  
2002-04-23 07:46:12 51°10.127 2°41.903 11.317523 3.464811 30.190824  
2002-04-23 07:46:17 51°10.124 2°41.876 11.656771 3.464711 30.184669  
2002-04-23 07:46:22 51°10.12 2°41.849 11.656771 3.464711 30.184669  
2002-04-23 07:46:27 51°10.117 2°41.822 11.511547 3.465112 30.185949  
2002-04-23 07:46:32 51°10.113 2°41.795 11.628182 3.465412 30.192095  
2002-04-23 07:46:37 51°10.11 2°41.769 11.850395 3.465412 30.194689  
2002-04-23 07:46:41 51°10.107 2°41.747 11.624842 3.465813 30.204401  
2002-04-23 07:46:47 51°10.102 2°41.715 11.588274 3.466214 30.208924  
2002-04-23 07:46:52 51°10.099 2°41.688 11.588274 3.466214 30.208924  
2002-04-23 07:46:57 51°10.096 2°41.661 11.888687 3.466614 30.2115  
2002-04-23 07:47:02 51°10.093 2°41.634 11.666877 3.467917 30.222143  
2002-04-23 07:47:07 51°10.089 2°41.607 11.733604 3.468317 30.225368  
2002-04-23 07:47:12 51°10.086 2°41.58 11.991511 3.469019 30.232148  
2002-04-23 07:47:17 51°10.082 2°41.553 11.499583 3.469219 30.237333  
2002-04-23 07:47:22 51°10.079 2°41.527 11.499583 3.469219 30.237333  
2002-04-23 07:47:27 51°10.075 2°41.5 12.206613 3.470021 30.243783  
2002-04-23 07:47:32 51°10.072 2°41.473 11.347442 3.470521 30.249926  
2002-04-23 07:47:37 51°10.068 2°41.446 11.758997 3.470521 30.249276  
2002-04-23 07:47:42 51°10.065 2°41.419 11.612624 3.470822 30.254782  
2002-04-23 07:47:47 51°10.061 2°41.392 11.575591 3.471223 30.258657  
2002-04-23 07:47:52 51°10.058 2°41.366 11.575591 3.471223 30.258657  
2002-04-23 07:47:57 51°10.054 2°41.339 11.839222 3.471423 30.259944  
2002-04-23 07:48:02 51°10.051 2°41.312 11.769224 3.471824 30.26382  
2002-04-23 07:48:07 51°10.047 2°41.285 12.073409 3.472124 30.263475  
2002-04-23 07:48:12 51°10.044 2°41.258 11.808567 3.472725 30.266687  
2002-04-23 07:48:17 51°10.041 2°41.232 11.886727 3.473126 30.274463  
2002-04-23 07:48:22 51°10.037 2°41.205 11.886727 3.473126 30.274463  
2002-04-23 07:48:27 51°10.034 2°41.178 12.184885 3.473527 30.278989  
2002-04-23 07:48:32 51°10.03 2°41.151 11.621319 3.473828 30.284498  
2002-04-23 07:48:37 51°10.027 2°41.124 11.882033 3.474228 30.290326  
2002-04-23 07:48:42 51°10.023 2°41.098 11.695587 3.47503 30.294824  
2002-04-23 07:48:47 51°10.02 2°41.071 12.214822 3.475631 30.302591  
2002-04-23 07:48:52 51°10.017 2°41.044 12.214822 3.475631 30.302591  
2002-04-23 07:48:57 51°10.013 2°41.017 11.992739 3.476332 30.307421  
2002-04-23 07:49:02 51°10.01 2°40.99 11.507147 3.476432 30.310995  
2002-04-23 07:49:07 51°10.006 2°40.963 11.506872 3.477534 30.317095  
2002-04-23 07:49:12 51°10.003 2°40.937 12.103896 3.478135 30.32747  
2002-04-23 07:49:17 51°9.999 2°40.91 11.806149 3.478336 30.33006  
2002-04-23 07:49:22 51°9.996 2°40.883 11.806149 3.478336 30.33006  
2002-04-23 07:49:27 51°9.993 2°40.856 11.392915 3.478636 30.332968  
2002-04-23 07:49:32 51°9.989 2°40.829 11.91762 3.479338 30.337797  
2002-04-23 07:49:37 51°9.986 2°40.802 11.840636 3.479338 30.338449  
2002-04-23 07:49:42 51°9.983 2°40.776 11.726249 3.479538 30.339735  
2002-04-23 07:49:47 51°9.979 2°40.749 11.309938 3.480139 30.345551  
2002-04-23 07:49:52 51°9.976 2°40.722 11.309938 3.480139 30.345551  
2002-04-23 07:49:57 51°9.972 2°40.695 11.640443 3.480039 30.343277  
2002-04-23 07:50:02 51°9.969 2°40.668 11.713182 3.48064 30.349745  
2002-04-23 07:50:07 51°9.966 2°40.641 11.442531 3.481341 30.356529  
2002-04-23 07:50:12 51°9.963 2°40.615 11.662396 3.481542 30.35912  
2002-04-23 07:50:17 51°9.959 2°40.588 11.998245 3.481642 30.356828  
2002-04-23 07:50:22 51°9.956 2°40.561 11.998245 3.481642 30.356828  
2002-04-23 07:50:27 51°9.952 2°40.534 11.77452 3.481441 30.361413  
2002-04-23 07:50:32 51°9.949 2°40.507 11.736527 3.481742 30.361059  
2002-04-23 07:50:37 51°9.946 2°40.48 11.854271 3.482343 30.366874  
2002-04-23 07:50:42 51°9.942 2°40.453 12.040726 3.482644 30.36913  
2002-04-23 07:50:47 51°9.939 2°40.427 12.228289 3.483245 30.376251  
2002-04-23 07:50:52 51°9.936 2°40.4 12.228289 3.483245 30.376251  
2002-04-23 07:50:57 51°9.933 2°40.373 11.85883 3.483645 30.38274  
2002-04-23 07:51:02 51°9.929 2°40.346 11.636691 3.484046 30.38923  
2002-04-23 07:51:07 51°9.926 2°40.319 11.631979 3.484146 30.392812  
2002-04-23 07:51:12 51°9.923 2°40.293 11.596971 3.484447 30.397682  
2002-04-23 07:51:17 51°9.919 2°40.266 12.008799 3.484447 30.400949  
2002-04-23 07:51:22 51°9.916 2°40.239 12.008799 3.484447 30.400949  
2002-04-23 07:51:27 51°9.913 2°40.213 11.261371 3.484547 30.401265  
2002-04-23 07:51:32 51°9.909 2°40.186 11.785841 3.485549 30.411617  
2002-04-23 07:51:37 51°9.906 2°40.159 11.561945 3.48605 30.416467  
2002-04-23 07:51:42 51°9.903 2°40.133 11.824444 3.487352 30.429731  
2002-04-23 07:51:47 51°9.899 2°40.106 11.902358 3.487853 30.435889  
2002-04-23 07:51:52 51°9.896 2°40.079 11.902358 3.487853 30.435889  
2002-04-23 07:51:57 51°9.893 2°40.053 11.827181 3.488254 30.440424  
2002-04-23 07:52:02 51°9.89 2°40.026 11.412931 3.488655 30.444959  
2002-04-23 07:52:07 51°9.886 2°39.999 11.793463 3.489156 30.44981  
2002-04-23 07:52:12 51°9.883 2°39.972 11.415272 3.489156 30.447191  
2002-04-23 07:52:17 51°9.879 2°39.946 11.980134 3.489656 30.446151  
2002-04-23 07:52:22 51°9.876 2°39.919 11.980134 3.489656 30.446151  
2002-04-23 07:52:27 51°9.873 2°39.892 12.092312 3.489857 30.457256  
2002-04-23 07:52:32 51°9.87 2°39.866 11.940802 3.490358 30.462762  
2002-04-23 07:52:37 51°9.866 2°39.839 12.017715 3.49136 30.47181  
2002-04-23 07:52:42 51°9.863 2°39.812 11.867994 3.49156 30.47244  
2002-04-23 07:52:47 51°9.86 2°39.786 11.644148 3.491861 30.473385  
2002-04-23 07:52:52 51°9.857 2°39.759 11.644148 3.491861 30.473385  
2002-04-23 07:52:57 51°9.854 2°39.732 11.718025 3.492261 30.480543  
2002-04-23 07:53:02 51°9.85 2°39.705 11.569455 3.492462 30.485105  
2002-04-23 07:53:07 51°9.847 2°39.679 11.420642 3.492963 30.489302  
2002-04-23 07:53:12 51°9.843 2°39.652 11.610061 3.493464 30.492187  
2002-04-23 07:53:17 51°9.84 2°39.625 12.09313 3.493564 30.494468  
2002-04-23 07:53:22 51°9.837 2°39.599 12.09313 3.493564 30.494468  
2002-04-23 07:53:27 51°9.833 2°39.572 11.763654 3.494265 30.498638  
2002-04-23 07:53:32 51°9.83 2°39.545 11.647075 3.494866 30.505772  
2002-04-23 07:53:37 51°9.827 2°39.518 11.422111 3.495367 30.509313  
2002-04-23 07:53:42 51°9.823 2°39.492 11.796383 3.496169 30.51642  
2002-04-23 07:53:47 51°9.82 2°39.465 11.759316 3.496569 30.520958  
2002-04-23 07:53:52 51°9.816 2°39.438 11.759316 3.496569 30.520958  
2002-04-23 07:53:57 51°9.813 2°39.411 11.534735 3.49677 30.521586  
2002-04-23 07:54:02 51°9.81 2°39.385 11.426517 3.497471 30.52838  
2002-04-23 07:54:07 51°9.806 2°39.358 11.986096 3.497772 30.531948  
2002-04-23 07:54:12 51°9.803 2°39.331 11.875287 3.498172 30.532547  
2002-04-23 07:54:17 51°9.799 2°39.304 11.537621 3.498373 30.536458  
2002-04-23 07:54:22 51°9.795 2°39.278 11.537621 3.498373 30.536458  
2002-04-23 07:54:27 51°9.792 2°39.251 11.649042 3.498573 30.537742  
2002-04-23 07:54:32 51°9.789 2°39.224 11.804826 3.498773 30.539026  
2002-04-23 07:54:37 51°9.785 2°39.197 11.876017 3.499675 30.547761  
2002-04-23 07:54:42 51°9.782 2°39.17 11.387037 3.499875 30.550358  
2002-04-23 07:54:47 51°9.779 2°39.144 11.873555 3.500577 30.554525  
2002-04-23 07:54:52 51°9.775 2°39.117 11.873555 3.500577 30.554525  
2002-04-23 07:54:57 51°9.772 2°39.09 11.725472 3.501278 30.563289  
2002-04-23 07:55:02 51°9.769 2°39.063 12.099036 3.501578 30.562916  
2002-04-23 07:55:07 51°9.765 2°39.036 11.98919 3.501578 30.562259  
2002-04-23 07:55:12 51°9.762 2°39.009 11.351026 3.50238 30.570023  
2002-04-23 07:55:17 51°9.758 2°38.983 11.690102 3.502981 30.575846  
2002-04-23 07:55:22 51°9.754 2°38.956 11.690102 3.502981 30.575846  
2002-04-23 07:55:27 51°9.751 2°38.929 11.727071 3.503482 30.578069  
2002-04-23 07:55:32 51°9.747 2°38.902 11.462211 3.503883 30.582608  
2002-04-23 07:55:37 51°9.744 2°38.875 11.538721 3.504183 30.587492  
2002-04-23 07:55:42 51°9.74 2°38.849 11.761919 3.504283 30.589778  
2002-04-23 07:55:47 51°9.737 2°38.822 11.798848 3.504484 30.592377  
2002-04-23 07:55:52 51°9.733 2°38.795 11.798848 3.504484 30.592377  
2002-04-23 07:55:57 51°9.73 2°38.768 11.497245 3.505486 30.598794  
2002-04-23 07:56:02 51°9.726 2°38.741 11.423396 3.506087 30.603302  
2002-04-23 07:56:07 51°9.723 2°38.714 11.722365 3.506788 30.611412  
2002-04-23 07:56:12 51°9.72 2°38.688 11.796383 3.507089 30.614982  
2002-04-23 07:56:17 51°9.716 2°38.661 11.872279 3.506888 30.614357  
2002-04-23 07:56:22 51°9.713 2°38.634 11.872279 3.506888 30.614357  
2002-04-23 07:56:27 51°9.709 2°38.607 11.60608 3.50759 30.619836  
2002-04-23 07:56:32 51°9.706 2°38.58 11.906823 3.508291 30.626631  
2002-04-23 07:56:37 51°9.702 2°38.553 11.793554 3.508591 30.630201  
2002-04-23 07:56:42 51°9.699 2°38.527 11.416695 3.508792 30.634119  
2002-04-23 07:56:47 51°9.695 2°38.5 11.752741 3.509493 30.640914  
2002-04-23 07:56:52 51°9.692 2°38.473 11.752741 3.509493 30.640914  
2002-04-23 07:56:57 51°9.688 2°38.446 11.753928 3.509693 30.638904  
2002-04-23 07:57:02 51°9.685 2°38.419 11.793782 3.510194 30.644417  
2002-04-23 07:57:07 51°9.681 2°38.392 11.568127 3.510996 30.652842  
2002-04-23 07:57:12 51°9.678 2°38.365 11.748448 3.510996 30.654819  
2002-04-23 07:57:17 51°9.674 2°38.339 11.789583 3.511397 30.657385  
2002-04-23 07:57:22 51°9.671 2°38.312 11.789583 3.511397 30.657385  
2002-04-23 07:57:27 51°9.667 2°38.285 11.862113 3.511497 30.660992  
2002-04-23 07:57:32 51°9.664 2°38.258 11.48505 3.511998 30.665847  
2002-04-23 07:57:37 51°9.66 2°38.231 11.821022 3.512298 30.66876  
2002-04-23 07:57:42 51°9.657 2°38.204 11.520896 3.512599 30.670354  
2002-04-23 07:57:47 51°9.653 2°38.177 11.296282 3.512899 30.672608  
2002-04-23 07:57:52 51°9.65 2°38.15 11.296282 3.512899 30.672608  
2002-04-23 07:57:57 51°9.646 2°38.124 11.706327 3.5134 30.678782  
2002-04-23 07:58:02 51°9.643 2°38.097 11.551547 3.513501 30.68371  
2002-04-23 07:58:07 51°9.639 2°38.07 11.667152 3.514002 30.686587  
2002-04-23 07:58:12 51°9.636 2°38.043 11.555074 3.514803 30.694356  
2002-04-23 07:58:17 51°9.632 2°38.016 11.662762 3.514703 30.694045  
2002-04-23 07:58:22 51°9.629 2°37.989 11.662762 3.514703 30.694045  
2002-04-23 07:58:27 51°9.625 2°37.962 11.884904 3.515104 30.69331  
2002-04-23 07:58:32 51°9.622 2°37.935 11.546417 3.515104 30.69793  
2002-04-23 07:58:37 51°9.618 2°37.908 11.324556 3.515104 30.69331  
2002-04-23 07:58:42 51°9.615 2°37.881 11.468357 3.515605 30.704766  
2002-04-23 07:58:47 51°9.611 2°37.855 11.469412 3.515905 30.70768  
2002-04-23 07:58:51 51°9.609 2°37.833 11.469412 3.515905 30.70768  
2002-04-23 07:58:57 51°9.604 2°37.801 11.912062 3.516707 30.716771  
2002-04-23 07:59:02 51°9.601 2°37.774 11.869453 3.516506 30.715489  
2002-04-23 07:59:07 51°9.597 2°37.747 11.828686 3.516506 30.719453  
2002-04-23 07:59:12 51°9.594 2°37.72 12.055547 3.516907 30.718054  
2002-04-23 07:59:17 51°9.591 2°37.694 11.305662 3.517508 30.723882  
2002-04-23 07:59:22 51°9.588 2°37.667 11.305662 3.517508 30.723882  
2002-04-23 07:59:27 51°9.584 2°37.64 11.565975 3.517608 30.730139  
2002-04-23 07:59:32 51°9.581 2°37.613 11.495732 3.518109 30.733675  
2002-04-23 07:59:37 51°9.577 2°37.586 11.719167 3.51841 30.740557  
2002-04-23 07:59:42 51°9.573 2°37.559 11.531069 3.519011 30.750355  
2002-04-23 07:59:47 51°9.57 2°37.532 11.451615 3.519813 30.756145  
2002-04-23 07:59:52 51°9.567 2°37.506 11.451615 3.519813 30.756145  
2002-04-23 07:59:57 51°9.563 2°37.479 11.527953 3.520013 30.761397  
2002-04-23 08:00:02 51°9.56 2°37.452 11.448633 3.520514 30.76361  
2002-04-23 08:00:07 51°9.557 2°37.425 11.78365 3.521015 30.763837  
2002-04-23 08:00:12 51°9.553 2°37.399 11.671724 3.521416 30.77368  
2002-04-23 08:00:17 51°9.55 2°37.372 11.486288 3.521716 30.780569  
2002-04-23 08:00:22 51°9.546 2°37.345 11.486288 3.521716 30.780569  
2002-04-23 08:00:27 51°9.543 2°37.318 12.009754 3.522217 30.790067  
2002-04-23 08:00:32 51°9.54 2°37.291 11.405173 3.522618 30.793293  
2002-04-23 08:00:37 51°9.537 2°37.265 11.256356 3.523119 30.796829  
2002-04-23 08:00:42 51°9.534 2°37.237 11.517872 3.52352 30.802044  
2002-04-23 08:00:47 51°9.532 2°37.21 11.782417 3.52352 30.800055  
2002-04-23 08:00:52 51°9.53 2°37.183 11.782417 3.52352 30.800055  
2002-04-23 08:00:57 51°9.529 2°37.156 11.818696 3.524321 30.816454  
2002-04-23 08:01:02 51°9.527 2°37.128 11.854134 3.524522 30.821052  
2002-04-23 08:01:07 51°9.526 2°37.101 11.629829 3.524722 30.816364  
2002-04-23 08:01:12 51°9.525 2°37.074 11.629463 3.525323 30.824852  
2002-04-23 08:01:17 51°9.524 2°37.047 11.669255 3.525824 30.833033  
2002-04-23 08:01:22 51°9.523 2°37.02 11.669255 3.525824 30.833033  
2002-04-23 08:01:27 51°9.521 2°36.992 11.589738 3.526425 30.836878  
2002-04-23 08:01:32 51°9.52 2°36.965 11.511776 3.526726 30.835813  
2002-04-23 08:01:37 51°9.518 2°36.938 11.888368 3.527427 30.848596  
2002-04-23 08:01:42 51°9.517 2°36.911 11.885543 3.527728 30.848194  
2002-04-23 08:01:47 51°9.515 2°36.883 11.439228 3.527928 30.854788  
2002-04-23 08:01:52 51°9.514 2°36.856 11.439228 3.527928 30.854788  
2002-04-23 08:01:57 51°9.512 2°36.829 11.402373 3.528329 30.861337  
2002-04-23 08:02:02 51°9.51 2°36.802 12.113753 3.528429 30.865632  
2002-04-23 08:02:07 51°9.509 2°36.774 11.810347 3.52903 30.87147  
2002-04-23 08:02:12 51°9.507 2°36.747 11.59102 3.529732 30.876952  
2002-04-23 08:02:17 51°9.506 2°36.72 11.926729 3.530233 30.883147  
2002-04-23 08:02:22 51°9.504 2°36.693 11.926729 3.530233 30.883147  
2002-04-23 08:02:27 51°9.502 2°36.666 11.36591 3.530633 30.891696  
2002-04-23 08:02:32 51°9.501 2°36.639 11.554525 3.531435 30.894825  
2002-04-23 08:02:37 51°9.499 2°36.612 11.520209 3.532136 30.904298  
2002-04-23 08:02:42 51°9.497 2°36.585 11.556815 3.533038 30.913058  
2002-04-23 08:02:47 51°9.496 2°36.558 11.85801 3.533739 30.917874  
2002-04-23 08:02:52 51°9.494 2°36.531 11.85801 3.533739 30.917874  
2002-04-23 08:02:57 51°9.493 2°36.503 11.597063 3.53414 30.919769  
2002-04-23 08:03:02 51°9.491 2°36.476 11.447853 3.535242 30.934471  
2002-04-23 08:03:07 51°9.489 2°36.449 11.824216 3.536344 30.947178  
2002-04-23 08:03:12 51°9.488 2°36.422 11.566982 3.536845 30.953379  
2002-04-23 08:03:17 51°9.486 2°36.395 11.793189 3.537146 30.9543  
2002-04-23 08:03:22 51°9.484 2°36.368 11.793189 3.537146 30.9543  
2002-04-23 08:03:27 51°9.483 2°36.341 11.679999 3.537346 30.956247  
2002-04-23 08:03:32 51°9.481 2°36.314 11.833658 3.538048 30.965062  
2002-04-23 08:03:37 51°9.479 2°36.287 11.983411 3.538148 30.966036  
2002-04-23 08:03:42 51°9.478 2°36.26 11.576095 3.538949 30.975159  
2002-04-23 08:03:47 51°9.476 2°36.233 11.767444 3.540252 30.98715  
2002-04-23 08:03:52 51°9.474 2°36.206 11.767444 3.540252 30.98715  
2002-04-23 08:03:57 51°9.473 2°36.179 12.104623 3.540753 30.990017  
2002-04-23 08:04:02 51°9.471 2°36.152 11.698786 3.541053 30.993605  
2002-04-23 08:04:07 51°9.47 2°36.125 11.51118 3.541354 30.995859  
2002-04-23 08:04:12 51°9.468 2°36.098 11.4762 3.542055 31.00134  
2002-04-23 08:04:17 51°9.466 2°36.071 11.854635 3.542456 31.003899  
2002-04-23 08:04:22 51°9.465 2°36.044 11.854635 3.542456 31.003899  
2002-04-23 08:04:27 51°9.463 2°36.018 11.706693 3.542957 31.0081  
2002-04-23 08:04:32 51°9.462 2°35.99 12.338827 3.543658 31.014916  
2002-04-23 08:04:37 51°9.46 2°35.964 11.819152 3.544159 31.019116  
2002-04-23 08:04:42 51°9.459 2°35.936 11.5608 3.54446 31.01803  
2002-04-23 08:04:47 51°9.457 2°35.91 11.563502 3.545461 31.022423  
2002-04-23 08:04:52 51°9.456 2°35.882 11.563502 3.545461 31.022423  
2002-04-23 08:04:57 51°9.455 2°35.855 11.641449 3.545261 31.023147  
2002-04-23 08:05:02 51°9.455 2°35.828 11.900899 3.545762 31.028015  
2002-04-23 08:05:07 51°9.456 2°35.801 11.79077 3.546163 31.023227  
2002-04-23 08:05:12 51°9.457 2°35.774 11.679131 3.547365 31.033571  
2002-04-23 08:05:17 51°9.458 2°35.746 11.79223 3.547966 31.042751  
2002-04-23 08:05:22 51°9.46 2°35.719 11.79223 3.547966 31.042751  
2002-04-23 08:05:27 51°9.462 2°35.692 11.530977 3.549068 31.048782  
2002-04-23 08:05:32 51°9.465 2°35.665 11.644559 3.548768 31.04319  
2002-04-23 08:05:37 51°9.469 2°35.639 11.494815 3.549569 31.053649  
2002-04-23 08:05:42 51°9.474 2°35.612 11.756165 3.55007 31.057847  
2002-04-23 08:05:47 51°9.479 2°35.586 11.943807 3.550671 31.061014  
2002-04-23 08:05:52 51°9.485 2°35.559 11.943807 3.550671 31.061014  
2002-04-23 08:05:57 51°9.491 2°35.533 11.644925 3.551673 31.068073  
2002-04-23 08:06:02 51°9.497 2°35.507 11.346431 3.551874 31.072025  
2002-04-23 08:06:07 51°9.503 2°35.481 11.643141 3.552775 31.076774  
2002-04-23 08:06:12 51°9.509 2°35.455 11.679588 3.552775 31.076774  
2002-04-23 08:06:17 51°9.515 2°35.429 11.605576 3.553577 31.085229  
2002-04-23 08:06:22 51°9.521 2°35.403 11.605576 3.553577 31.085229  
2002-04-23 08:06:27 51°9.527 2°35.376 12.055865 3.553176 31.079329  
2002-04-23 08:06:32 51°9.533 2°35.35 11.875242 3.553476 31.074896  
2002-04-23 08:06:37 51°9.539 2°35.324 11.574584 3.553977 31.083103  
2002-04-23 08:06:42 51°9.546 2°35.299 11.986733 3.553777 31.081157  
2002-04-23 08:06:47 51°9.553 2°35.273 11.653158 3.554278 31.084017  
2002-04-23 08:06:52 51°9.561 2°35.248 11.653158 3.554278 31.084017  
2002-04-23 08:06:57 51°9.568 2°35.222 11.654027 3.554579 31.087605  
2002-04-23 08:07:02 51°9.577 2°35.198 11.693027 3.55518 31.093444  
2002-04-23 08:07:07 51°9.586 2°35.174 11.882124 3.556081 31.100864  
2002-04-23 08:07:12 51°9.596 2°35.15 11.768859 3.556382 31.103115  
2002-04-23 08:07:17 51°9.605 2°35.126 11.81062 3.557184 31.111569  
2002-04-23 08:07:22 51°9.616 2°35.103 11.81062 3.557184 31.111569  
2002-04-23 08:07:27 51°9.626 2°35.08 11.927686 3.556783 31.10567  
2002-04-23 08:07:32 51°9.636 2°35.057 11.63692 3.558085 31.116313  
2002-04-23 08:07:37 51°9.647 2°35.034 11.902995 3.557284 31.109197  
2002-04-23 08:07:42 51°9.657 2°35.01 11.725015 3.558386 31.119232  
2002-04-23 08:07:47 51°9.668 2°34.988 11.995105 3.558787 31.122455  
2002-04-23 08:07:52 51°9.678 2°34.964 11.995105 3.558787 31.122455  
2002-04-23 08:07:57 51°9.689 2°34.942 11.7742 3.557684 31.110413  
2002-04-23 08:08:02 51°9.698 2°34.918 11.703996 3.558286 31.115583  
2002-04-23 08:08:07 51°9.71 2°34.896 11.594957 3.558185 31.108589  
2002-04-23 08:08:12 51°9.718 2°34.871 11.93643 3.558386 31.109866  
2002-04-23 08:08:17 51°9.73 2°34.849 11.414262 3.558285 31.10555  
2002-04-23 08:08:22 51°9.738 2°34.824 11.414262 3.558285 31.10555  
2002-04-23 08:08:27 51°9.749 2°34.802 11.906276 3.558486 31.108833  
2002-04-23 08:08:32 51°9.758 2°34.777 12.093493 3.558586 31.106462  
2002-04-23 08:08:37 51°9.77 2°34.755 11.647029 3.558987 31.110353  
2002-04-23 08:08:41 51°9.777 2°34.736 11.647761 3.558686 31.102755  
2002-04-23 08:08:47 51°9.791 2°34.71 11.911014 3.559388 31.110232  
2002-04-23 08:08:52 51°9.802 2°34.687 11.911014 3.559388 31.110232